Location: Newark
(49.9386°N, 3.5850°E)
Time: 11:24:44
(UTC+00:00)

Envisat - Visible Passes

Search period start: 20 January 2020 00:00
Search period end: 30 January 2020 00:00
Orbit: 764 x 766 km, 98.1° (Epoch: 20 January)

Date Brightness Start Highest point End Pass type
(mag) Time Alt. Az. Time Alt. Az. Time Alt. Az.
20 Jan 4.6 05:58:00 10° NNE 06:02:46 38° E 06:07:29 10° SSE visible
20 Jan 2.9 17:16:51 10° SSE 17:21:55 77° ENE 17:27:01 10° NNW visible
20 Jan 5.9 18:58:20 10° SW 19:01:33 17° W 19:04:48 10° NW visible
21 Jan 5.8 05:21:59 10° NE 05:25:38 19° E 05:29:16 10° SE visible
21 Jan 4.8 18:19:49 10° SSW 18:24:23 33° W 18:28:59 10° NNW visible
22 Jan 3.6 06:23:18 10° NNE 06:28:22 63° E 06:33:24 10° S visible
22 Jan 3.4 17:42:22 10° S 17:47:25 66° WSW 17:52:30 10° NNW visible
23 Jan 5.0 05:46:52 10° NNE 05:51:23 31° E 05:55:53 10° SSE visible
23 Jan 3.0 17:05:38 10° SSE 17:10:39 63° ENE 17:15:42 10° N visible
23 Jan 5.6 18:46:22 10° SW 18:50:07 21° W 18:53:54 10° NW visible
24 Jan 6.1 05:11:08 10° NE 05:14:12 16° E 05:17:16 10° SE visible
24 Jan 3.0 06:48:46 10° NNE 06:53:53 82° WNW 06:58:58 10° SSW visible
24 Jan 4.4 18:08:15 10° SSW 18:13:01 40° W 18:17:49 10° NNW visible
25 Jan 4.0 06:12:04 10° NNE 06:17:02 51° E 06:21:58 10° S visible
25 Jan 3.1 17:31:02 10° SSE 17:36:06 81° WSW 17:41:14 10° NNW visible
25 Jan 6.2 19:13:52 10° WSW 19:15:58 12° W 19:18:05 10° WNW visible
26 Jan 5.4 05:35:47 10° NE 05:40:00 26° E 05:44:12 10° SSE visible
26 Jan 3.2 16:54:29 10° SE 16:59:23 52° ENE 17:04:20 10° N visible
26 Jan 5.3 18:34:33 10° SSW 18:38:43 25° W 18:42:54 10° NW visible
27 Jan 6.2 05:00:31 10° ENE 05:02:45 13° E 05:04:58 10° ESE visible
27 Jan 3.2 06:37:28 10° NNE 06:42:35 83° ESE 06:47:40 10° SSW visible
27 Jan 4.0 17:56:45 10° S 18:01:40 50° W 18:06:37 10° NNW visible
28 Jan 4.5 06:00:52 10° NNE 06:05:41 41° E 06:10:29 10° SSE visible
28 Jan 3.0 17:19:44 10° SSE 17:24:49 83° ENE 17:29:56 10° NNW visible
28 Jan 6.0 19:01:32 10° WSW 19:04:30 16° W 19:07:30 10° NW visible
29 Jan 5.7 05:24:45 10° NE 05:28:35 21° E 05:32:24 10° SE visible
29 Jan 5.0 18:22:51 10° SSW 18:27:19 31° W 18:31:48 10° NNW visible
